GEOSCAN 6 (RS92S6)

Last updated on Thu Oct 30 2025 00:03:11 GMT+0000 (Coordinated Universal Time)

1 64879U 25155D 25302.24861575 .00016232 00000+0 66905-3 0 9994 2 64879 97.4275 266.3175 0006157 277.1250 82.9287 15.24144389 45515
UTC large
Height (km)
Speed (km/s)
/
Latitude / Longitude
Inclination (degrees)
Orbital Period (minutes)
Azimuth
Elevation
Range (km)
Doppler Factor

Next 0 passes for location: London (51.5072 / 0.1276)

Sorry there are no passes over London.